Погода в Копнино

Россия / Ярославская область     56°52′43″N   38°28′28″E
темп.,
°C
ветер,
м/с
пор.,
м/с
влажн.,
%
обл.,
%
осадки,
мм/ч
давл.,
гПа
погр.,
м
23 апреля, пт
пт2300:00+6ююв3119153 0.2 1015247
03:00+6ююв310935 0.2 1014260
06:00+6ююв4119444 0.0 1014317
09:00+11ю5107478 0.0 1014641
12:00+14ю5115734 0.1 10131592
15:00+15ю61254100 1.6 10122253
18:00+13ю7135999 1.0 10111448
21:00+6зсз359093 2.0 1012303
24 апреля, сб
сб2400:00+6с1193100 1.6 1011181
03:00+5ссз2396100 3.6 1009234
06:00+4сз3597100 2.5 1007360
09:00+2сз3598100 4.7 1006285
12:00+1зсз3699100 7.4 1006228
15:00+1зсз38100100 12.8 1006285
18:00+2зсз4999100 2.3 1005536
21:00+3зсз4999100 2.5 1005660
25 апреля, вс
вс2500:00+2зсз51198100 0.3 1004779
03:000з51290100 0.3 1005513
06:00−1зюз5129085 0.0 1005483
09:00+1з61089100 0.0 1006866
12:00+3зюз5981100 0.1 10071340
15:00+6з6106375 0.4 10072039
18:00+5з49665 0.4 1007699
21:000юз26895 0.4 100889
26 апреля, пн
пн2600:00−1юз310885 0.0 1008246
03:00−1юз310935 0.0 1009254
06:00−1юз310925 0.0 1009328
09:00+4юз587568 0.0 10091027
12:00+5юз5768100 0.3 10091246
15:00+6зюз576495 0.8 10091656
18:00+4зюз467152 0.1 1009976
21:000ююз23835 0.1 100937
27 апреля, вт
вт2700:00−1ююз24861 0.0 100986
03:00−2зюз23872 0.0 100851
06:00−1юз24885 0.0 1008122
09:00+4зюз34615 0.0 10071007
12:00+7зюз4644100 0.0 10062286
15:00+8з4639100 0.0 10052272
18:00+6з3655100 0.1 1004241
21:00+3з2476100 0.2 100569